Weather History for Naples, Italy

Change the Weather History Date:

Friday, November 4, 2011

  Actual Average Record
Temperature  
Mean Temperature 60 °F -  
Max Temperature 70 °F 62 °F 77 °F (2008)
Min Temperature 51 °F 45 °F 39 °F (2006)
Degree Days  
Heating Degree Days 4    
Growing Degree Days 10 (Base 50)    
Moisture  
Dew Point 52 °F    
Average Humidity 72    
Maximum Humidity 88    
Minimum Humidity 51    
Precipitation  
Precipitation 0.00 in 0.21 in - ()
Sea Level Pressure  
Sea Level Pressure 30.04 in    
Wind  
Wind Speed 3 mph ()    
Max Wind Speed 9 mph    
Max Gust Speed -    
Visibility 5.6 miles    
Events      
Averages and records for this station are not official NWS values.
T = Trace of Precipitation, MM = Missing Value Source: Averaged Metar Reports

Daily Weather History Graph

Daily Weather History Graph

Search for Another Location

Airport:

Trip Planner

Search our weather history database for the weather conditions in past years. The results will help you decide how hot, cold, wet, or windy it might be!

Date:

Astronomy

Nov. 04, 2011 Rise Set
Actual Time 6:36 AM CET 4:55 PM CET
Civil Twilight 6:07 AM CET 5:24 PM CET
Nautical Twilight 5:35 AM CET 5:57 PM CET
Astronomical Twilight 5:03 AM CET 6:29 PM CET
Moon 1:41 PM CET (11/4) 12:28 AM CET (11/4)
Length of Visible Light 11h 16m
Length of Day
10h 19m
Waxing Gibbous, 67% of the Moon is Illuminated
Nov 4
Waxing Gibbous
Nov 10
Full
Nov 18
Last Quarter
Nov 25
New
Dec 2
First Quarter

Hourly Weather History & Observations

Time (CET) Temp. Dew Point Humidity Pressure Visibility Wind Dir Wind Speed Gust Speed Precip Events Conditions
12:20 AM 53.6 °F 50.0 °F 88% 30.04 in 5.0 mi NNE 3.5 mph - N/A   Unknown
12:50 AM 53.6 °F 50.0 °F 88% 30.04 in 5.0 mi Variable 1.2 mph - N/A   Unknown
1:00 AM 53 °F 49 °F 83% 30.05 in 5 mi NNW 2.3 mph - -   Mist
1:20 AM 53.6 °F 50.0 °F 88% 30.04 in 5.0 mi NNW 2.3 mph - N/A   Unknown
1:50 AM 53.6 °F 48.2 °F 82% 30.04 in 5.0 mi NNW 2.3 mph - N/A   Unknown
2:20 AM 53.6 °F 48.2 °F 82% 30.04 in 5.0 mi North 2.3 mph - N/A   Unknown
2:50 AM 51.8 °F 48.2 °F 88% 30.04 in 5.0 mi NNW 4.6 mph - N/A   Unknown
3:20 AM 53.6 °F 48.2 °F 82% 30.04 in 5.0 mi NW 3.5 mph - N/A   Unknown
3:50 AM 53.6 °F 50.0 °F 88% 30.04 in 5.0 mi NW 3.5 mph - N/A   Unknown
4:00 AM 52 °F 48 °F 80% 30.05 in 5 mi NNW 2.3 mph - -   Mist
4:20 AM 53.6 °F 48.2 °F 82% 30.04 in 5.0 mi NNW 3.5 mph - N/A   Unknown
4:50 AM 51.8 °F 48.2 °F 88% 30.04 in 5.0 mi NNW 3.5 mph - N/A   Unknown
5:20 AM 51.8 °F 48.2 °F 88% 30.04 in 5.0 mi North 2.3 mph - N/A   Unknown
5:50 AM 51.8 °F 48.2 °F 88% 30.04 in 5.0 mi Variable 2.3 mph - N/A   Partly Cloudy
6:20 AM 51.8 °F 48.2 °F 88% 30.04 in 5.0 mi Variable 2.3 mph - N/A   Partly Cloudy
6:50 AM 53.6 °F 48.2 °F 82% 30.04 in - North 2.3 mph - N/A   Clear
7:00 AM 54 °F 49 °F 79% 30.05 in 6 mi North 3.5 mph - -  
7:20 AM 55.4 °F 50.0 °F 82% 30.04 in - North 4.6 mph - N/A   Clear
7:50 AM 57.2 °F 50.0 °F 77% 30.06 in - North 3.5 mph - N/A   Clear
8:20 AM 57.2 °F 50.0 °F 77% 30.06 in - NNE 4.6 mph - N/A   Clear
8:50 AM 59.0 °F 50.0 °F 72% 30.06 in - North 3.5 mph - N/A   Clear
9:20 AM 62.6 °F 51.8 °F 68% 30.06 in - NW 3.5 mph - N/A   Clear
9:50 AM 66.2 °F 51.8 °F 60% 30.06 in - Variable 2.3 mph - N/A   Clear
10:00 AM 66 °F 52 °F 51% 30.07 in 6 mi NE 2.3 mph - -  
10:20 AM 66.2 °F 51.8 °F 60% 30.06 in - NE 3.5 mph - N/A   Clear
10:50 AM 68.0 °F 51.8 °F 56% 30.06 in - NE 3.5 mph - N/A   Clear
11:20 AM 68.0 °F 51.8 °F 56% 30.06 in - Variable 3.5 mph - N/A   Clear
11:50 AM 69.8 °F 53.6 °F 56% 30.06 in - West 4.6 mph - N/A   Clear
12:20 PM 69.8 °F 53.6 °F 56% 30.04 in - SSW 6.9 mph - N/A   Clear
12:50 PM 69.8 °F 55.4 °F 60% 30.04 in 6.2 mi SSW 8.1 mph - N/A   Partly Cloudy
1:00 PM 70 °F 56 °F 52% 30.04 in 6 mi South 8.1 mph - -  
1:20 PM 69.8 °F 55.4 °F 60% 30.04 in 6.2 mi SSW 9.2 mph - N/A   Partly Cloudy
1:50 PM 69.8 °F 57.2 °F 64% 30.01 in 6.2 mi SW 8.1 mph - N/A   Partly Cloudy
2:20 PM 69.8 °F 55.4 °F 60% 30.01 in 6.2 mi SSW 9.2 mph - N/A   Partly Cloudy
2:50 PM 69.8 °F 57.2 °F 64% 30.01 in 6.2 mi SSW 6.9 mph - N/A   Partly Cloudy
3:20 PM 68.0 °F 55.4 °F 64% 30.01 in 6.2 mi South 9.2 mph - N/A   Partly Cloudy
3:50 PM 68.0 °F 55.4 °F 64% 30.01 in 6.2 mi SSW 5.8 mph - N/A   Partly Cloudy
4:00 PM 67 °F 55 °F 56% 30.01 in 6 mi SSW 5.8 mph - -   Scattered Clouds
4:20 PM 66.2 °F 55.4 °F 68% 30.01 in 6.2 mi SSW 4.6 mph - N/A   Partly Cloudy
4:50 PM 66.2 °F 55.4 °F 68% 30.01 in - SW 4.6 mph - N/A   Clear
5:20 PM 62.6 °F 55.4 °F 77% 30.01 in - WSW 5.8 mph - N/A   Clear
5:50 PM 64.4 °F 53.6 °F 68% 30.01 in - Variable 2.3 mph - N/A   Clear
6:20 PM 62.6 °F 53.6 °F 72% 30.04 in - Variable 2.3 mph - N/A   Clear
6:50 PM 62.6 °F 53.6 °F 72% 30.01 in - Variable 2.3 mph - N/A   Clear
7:00 PM 63 °F 53 °F 62% 30.03 in 9 mi NNE 2.3 mph - -  
7:20 PM 60.8 °F 53.6 °F 77% 30.01 in - Variable 1.2 mph - N/A   Clear
7:50 PM 60.8 °F 51.8 °F 72% 30.04 in - Variable 2.3 mph - N/A   Clear
8:20 PM 62.6 °F 51.8 °F 68% 30.04 in - NE 3.5 mph - N/A   Clear
8:50 PM 59.0 °F 50.0 °F 72% 30.04 in - Variable 2.3 mph - N/A   Clear
9:20 PM 60.8 °F 51.8 °F 72% 30.04 in - NNE 3.5 mph - N/A   Clear
9:50 PM 60.8 °F 51.8 °F 72% 30.04 in - NNE 4.6 mph - N/A   Clear
10:00 PM 60 °F 51 °F 64% 30.03 in 6 mi NNE 3.5 mph - -  
10:20 PM 57.2 °F 50.0 °F 77% 30.04 in 5.0 mi Variable 2.3 mph - N/A   Unknown
10:50 PM 57.2 °F 50.0 °F 77% 30.04 in 5.0 mi WNW 3.5 mph - N/A   Unknown
11:20 PM 57.2 °F 50.0 °F 77% 30.04 in 5.0 mi NW 3.5 mph - N/A   Unknown
11:50 PM 59.0 °F 51.8 °F 77% 30.04 in 5.0 mi North 3.5 mph - N/A   Unknown